Regional Weather Roundup
Issued by NWS Little Rock, AR

Home | Current Version | Previous Version | Graphics & Text | Print | Product List | Glossary On
Versions: 1 2 3 4 5 6 7 8 9 10 11 12 13 14 15 16 17 18 19 20 21 22 23 24 25 26 27 28 29 30 31 32 33 34 35 36 37 38 39 40 41 42 43 44 45 46 47 48 49 50
000
ASUS44 KLZK 011605
RWRLZK

WEATHER ROUNDUP FOR ARKANSAS
NATIONAL WEATHER SERVICE LITTLE ROCK AR
1100 AM CDT WED OCT 01 2014

NOTE: "FAIR" INDICATES FEW OR NO CLOUDS BELOW 12,000 FEET WITH NO
SIGNIFICANT WEATHER AND/OR OBSTRUCTIONS TO VISIBILITY.

ARZ001-003-010-029-011700-
NORTHWEST ARKANSAS

CITY           SKY/WX    TMP DP  RH WIND       PRES   REMARKS
FAYETTEVILLE   SUNNY     78  68  71 S14G24    29.89R
FORT SMITH     SUNNY     81  67  62 VRB5      29.85S
HARRISON       SUNNY     79  67  66 S12       29.90S
BENTONVILLE    CLOUDY    79  66  65 S9        29.88S
ROGERS         PTSUNNY   79  67  66 S16       29.88F
SILOAM SPGS    PTSUNNY   79  64  61 S16G22    29.88S
HIGHFILL       PTSUNNY   78  67  68 S16G22    29.87S
SPRINGDALE     MOSUNNY   79  68  69 S16       29.90S
$$

ARZ004-005-016-011700-
NORTH CENTRAL ARKANSAS

CITY           SKY/WX    TMP DP  RH WIND       PRES   REMARKS
BATESVILLE     MOSUNNY   84  66  54 S13G18    29.90F HX  86
FLIPPIN        SUNNY     77  61  57 SE3       29.90S
MTN HOME       SUNNY     79  63  57 S9        29.89F
$$

ARZ040-041-011700-
WEST CENTRAL ARKANSAS

CITY           SKY/WX    TMP DP  RH WIND       PRES   REMARKS
MENA           SUNNY     82  70  65 CALM      29.89S HX  86
MOUNT IDA      MOSUNNY   78  70  76 VRB5      29.88S
$$

ARZ009-017-025-026-028-011700-
NORTHEAST ARKANSAS

CITY           SKY/WX    TMP DP  RH WIND       PRES   REMARKS
CORNING          N/A     82  68  61 S8        29.92S HX  85
JONESBORO      MOSUNNY   83  67  58 S8        29.91F HX  85
NEWPORT        SUNNY     85  67  54 CALM      29.92S HX  87
WALNUT RIDGE   SUNNY     81  66  61 S12       29.90S
BLYTHEVILLE    SUNNY     86  62  44 S13       29.94S HX  86
NW BLYTHEVILLE SUNNY     84  63  48 S10       29.93S HX  85
$$

ARZ022-023-033-042-044-011700-
CENTRAL ARKANSAS

CITY           SKY/WX    TMP DP  RH WIND       PRES   REMARKS
LITTLE ROCK    PTSUNNY   83  67  58 S7        29.90S HX  85
N LITTLE ROCK  PTSUNNY   81  69  68 S7        29.90S
JACKSONVILLE   SUNNY     82  68  63 VRB6      29.90S
SEARCY         MOSUNNY   80  68  66 S8        29.92S
HOT SPRINGS    MOSUNNY   77  70  79 SE5       29.91S
RUSSELLVILLE   PTSUNNY   79  66  64 CALM      29.89S
CLINTON        CLOUDY    72  70  94 W5        29.92S FOG
$$

ARZ036-011700-
EAST ARKANSAS

CITY           SKY/WX    TMP DP  RH WIND       PRES   REMARKS
WEST MEMPHIS   SUNNY     84  67  56 SW9       29.92F HX  86
$$

ARZ050-053-066-070-073-011700-
SOUTHWEST ARKANSAS

CITY           SKY/WX    TMP DP  RH WIND       PRES   REMARKS
ARKADELPHIA    FAIR      82  75  79 S6        29.90R HX  88
CAMDEN         SUNNY     84  68  58 S7        29.89S HX  87
TEXARKANA      PTSUNNY   82  72  71 S10       29.89R HX  87
EL DORADO      PTSUNNY   84  72  67 S14       29.91R HX  89
DE QUEEN       MOSUNNY   82  72  71 S8        29.86S HX  87
$$

ARZ056-057-069-011700-
SOUTHEAST ARKANSAS

CITY           SKY/WX    TMP DP  RH WIND       PRES   REMARKS
PINE BLUFF     CLOUDY    77  70  79 S7        29.92R
STUTTGART      PTSUNNY  N/A N/A N/A S8        29.92S
MONTICELLO     PTSUNNY   86  71  60 SW12      29.91S HX  91

$$




USA.gov is the U.S. government's official web portal to all federal, state and local government web resources and services.